• In Deutschland
  • Länderverzeichnis
  • Für 7 Tage
  • Wassertemperatur
  • Satellitenkarten
  • Wetterkarte
  • Widgets
  • user-avatar
    Anmelden

    Stündliche Wetter Frechen

    Heute, 16 Juli, Montag

    Zeit Temperatur Niederschläge Wind Luftdruck Luftfeuchtigkeit
    00:00 +20°C° 0 mm 1 m/S 755 mmHg 69%
    01:00 +19°C° 0 mm 1 m/S 755 mmHg 72%
    02:00 +19°C° 0 mm 1 m/S 755 mmHg 75%
    03:00 +18°C° 0 mm 1 m/S 754 mmHg 78%
    04:00 +19°C° 0 mm 1 m/S 754 mmHg 75%
    05:00 +21°C° 0 mm 1 m/S 754 mmHg 71%
    06:00 +22°C° 0 mm 1 m/S 754 mmHg 68%
    07:00 +24°C° 0 mm 1 m/S 754 mmHg 62%
    08:00 +26°C° 0 mm 1 m/S 754 mmHg 57%
    09:00 +28°C° 0 mm 1 m/S 754 mmHg 51%
    10:00 +29°C° 0,1 mm 1 m/S 754 mmHg 46%
    11:00 +30°C° 0,1 mm 1 m/S 753 mmHg 41%
    12:00 +31°C° 0,1 mm 1 m/S 753 mmHg 36%
    13:00 +31°C° 0 mm 1 m/S 753 mmHg 35%
    14:00 +31°C° 0 mm 1 m/S 753 mmHg 34%
    15:00 +31°C° 0 mm 2 m/S 752 mmHg 33%
    16:00 +30°C° 0 mm 1 m/S 752 mmHg 37%
    17:00 +29°C° 0 mm 1 m/S 752 mmHg 42%
    18:00 +28°C° 0 mm 1 m/S 752 mmHg 47%
    19:00 +26°C° 0 mm 1 m/S 753 mmHg 50%
    20:00 +25°C° 0 mm 1 m/S 753 mmHg 54%
    21:00 +23°C° 0 mm 1 m/S 753 mmHg 57%
    22:00 +22°C° 0 mm 1 m/S 753 mmHg 60%
    23:00 +22°C° 0 mm 1 m/S 754 mmHg 62%

    Morgen, 17 Juli, Dienstag

    Zeit Temperatur Niederschläge Wind Luftdruck Luftfeuchtigkeit
    00:00 +21°C° 0 mm 1 m/S 754 mmHg 65%
    01:00 +20°C° 0 mm 1 m/S 754 mmHg 66%
    02:00 +20°C° 0 mm 1 m/S 754 mmHg 68%
    03:00 +20°C° 0 mm 1 m/S 754 mmHg 69%
    04:00 +20°C° 0 mm 1 m/S 754 mmHg 68%
    05:00 +20°C° 0 mm 2 m/S 754 mmHg 67%
    06:00 +21°C° 0 mm 2 m/S 754 mmHg 65%
    07:00 +24°C° 0 mm 2 m/S 754 mmHg 60%
    08:00 +25°C° 0 mm 2 m/S 754 mmHg 55%
    09:00 +27°C° 0 mm 2 m/S 754 mmHg 51%
    10:00 +28°C° 0,2 mm 3 m/S 754 mmHg 47%
    11:00 +28°C° 0,2 mm 3 m/S 754 mmHg 44%
    12:00 +29°C° 0,2 mm 3 m/S 754 mmHg 41%
    13:00 +29°C° 0,1 mm 3 m/S 754 mmHg 41%
    14:00 +29°C° 0,1 mm 3 m/S 754 mmHg 42%
    15:00 +29°C° 0,1 mm 3 m/S 754 mmHg 42%
    16:00 +28°C° 0,2 mm 3 m/S 754 mmHg 49%
    17:00 +27°C° 0,2 mm 3 m/S 754 mmHg 56%
    18:00 +26°C° 0,2 mm 3 m/S 754 mmHg 63%
    19:00 +24°C° 0,3 mm 3 m/S 755 mmHg 68%
    20:00 +21°C° 0,3 mm 3 m/S 755 mmHg 73%
    21:00 +20°C° 0,3 mm 2 m/S 755 mmHg 78%
    22:00 +19°C° 0 mm 2 m/S 756 mmHg 80%
    23:00 +18°C° 0 mm 2 m/S 756 mmHg 82%

    übermorgen, 18 Juli, Mittwoch

    Zeit Temperatur Niederschläge Wind Luftdruck Luftfeuchtigkeit
    00:00 +17°C° 0 mm 2 m/S 756 mmHg 83%
    01:00 +17°C° 0 mm 2 m/S 756 mmHg 84%
    02:00 +16°C° 0 mm 2 m/S 756 mmHg 86%
    03:00 +16°C° 0 mm 1 m/S 756 mmHg 87%
    04:00 +16°C° 0 mm 1 m/S 756 mmHg 84%
    05:00 +18°C° 0 mm 1 m/S 757 mmHg 81%
    06:00 +18°C° 0 mm 2 m/S 757 mmHg 79%
    07:00 +20°C° 0 mm 2 m/S 757 mmHg 70%
    08:00 +21°C° 0 mm 2 m/S 757 mmHg 62%
    09:00 +24°C° 0 mm 2 m/S 757 mmHg 53%
    10:00 +25°C° 0 mm 2 m/S 757 mmHg 49%
    11:00 +26°C° 0 mm 2 m/S 757 mmHg 46%
    12:00 +27°C° 0 mm 2 m/S 756 mmHg 42%
    13:00 +27°C° 0 mm 2 m/S 756 mmHg 41%
    14:00 +27°C° 0 mm 2 m/S 756 mmHg 41%
    15:00 +28°C° 0 mm 2 m/S 756 mmHg 41%
    16:00 +27°C° 0 mm 2 m/S 756 mmHg 45%
    17:00 +26°C° 0 mm 2 m/S 756 mmHg 49%
    18:00 +25°C° 0 mm 1 m/S 756 mmHg 52%
    19:00 +24°C° 0 mm 1 m/S 756 mmHg 55%
    20:00 +23°C° 0 mm 1 m/S 757 mmHg 58%
    21:00 +21°C° 0 mm 1 m/S 757 mmHg 60%
    22:00 +21°C° 0 mm 1 m/S 757 mmHg 63%
    23:00 +20°C° 0 mm 1 m/S 757 mmHg 65%

    19 Juli, Donnerstag

    Zeit Temperatur Niederschläge Wind Luftdruck Luftfeuchtigkeit
    00:00 +19°C° 0 mm 1 m/S 757 mmHg 67%
    01:00 +19°C° 0 mm 1 m/S 757 mmHg 69%
    02:00 +19°C° 0 mm 1 m/S 757 mmHg 70%
    03:00 +18°C° 0 mm 1 m/S 757 mmHg 72%
    04:00 +19°C° 0 mm 1 m/S 757 mmHg 69%
    05:00 +20°C° 0 mm 1 m/S 757 mmHg 67%
    06:00 +21°C° 0 mm 1 m/S 757 mmHg 65%
    07:00 +23°C° 0 mm 1 m/S 757 mmHg 59%
    08:00 +25°C° 0 mm 1 m/S 757 mmHg 53%
    09:00 +26°C° 0 mm 1 m/S 757 mmHg 47%
    10:00 +27°C° 0 mm 1 m/S 756 mmHg 45%
    11:00 +28°C° 0 mm 1 m/S 756 mmHg 43%
    12:00 +28°C° 0 mm 1 m/S 756 mmHg 42%
    13:00 +29°C° 0 mm 1 m/S 756 mmHg 41%
    14:00 +29°C° 0 mm 1 m/S 755 mmHg 41%
    15:00 +29°C° 0 mm 1 m/S 755 mmHg 41%
    16:00 +28°C° 0 mm 1 m/S 755 mmHg 45%
    17:00 +27°C° 0 mm 1 m/S 755 mmHg 48%
    18:00 +27°C° 0 mm 2 m/S 755 mmHg 52%
    19:00 +25°C° 0 mm 2 m/S 755 mmHg 55%
    20:00 +24°C° 0 mm 2 m/S 755 mmHg 58%
    21:00 +23°C° 0 mm 2 m/S 755 mmHg 61%
    22:00 +21°C° 0 mm 2 m/S 755 mmHg 62%
    23:00 +21°C° 0 mm 2 m/S 755 mmHg 62%

    20 Juli, Freitag

    Zeit Temperatur Niederschläge Wind Luftdruck Luftfeuchtigkeit
    00:00 +21°C° 0 mm 2 m/S 755 mmHg 63%
    01:00 +21°C° 0 mm 2 m/S 754 mmHg 64%
    02:00 +20°C° 0 mm 2 m/S 754 mmHg 64%
    03:00 +20°C° 0 mm 2 m/S 754 mmHg 65%
    04:00 +20°C° 0,1 mm 2 m/S 753 mmHg 66%
    05:00 +20°C° 0,1 mm 2 m/S 753 mmHg 67%
    06:00 +21°C° 0,1 mm 2 m/S 753 mmHg 68%
    07:00 +21°C° 0,4 mm 2 m/S 753 mmHg 68%
    08:00 +23°C° 0,4 mm 2 m/S 753 mmHg 68%
    09:00 +24°C° 0,4 mm 2 m/S 753 mmHg 68%
    10:00 +24°C° 0,6 mm 2 m/S 752 mmHg 67%
    11:00 +25°C° 0,6 mm 2 m/S 752 mmHg 66%
    12:00 +26°C° 0,6 mm 2 m/S 752 mmHg 64%
    13:00 +26°C° 0,8 mm 2 m/S 752 mmHg 67%
    14:00 +25°C° 0,8 mm 2 m/S 751 mmHg 70%
    15:00 +25°C° 0,8 mm 2 m/S 751 mmHg 73%
    16:00 +25°C° 0,6 mm 2 m/S 751 mmHg 75%
    17:00 +24°C° 0,6 mm 2 m/S 751 mmHg 76%
    18:00 +24°C° 0,6 mm 2 m/S 750 mmHg 77%
    19:00 +23°C° 0,4 mm 1 m/S 750 mmHg 79%
    20:00 +22°C° 0,4 mm 1 m/S 750 mmHg 81%
    21:00 +20°C° 0,4 mm 0 m/S 750 mmHg 84%
    22:00 +21°C° 0,8 mm 1 m/S 750 mmHg 85%
    23:00 +21°C° 0,8 mm 1 m/S 750 mmHg 87%

    21 Juli, Samstag

    Zeit Temperatur Niederschläge Wind Luftdruck Luftfeuchtigkeit
    00:00 +20°C° 0,8 mm 1 m/S 750 mmHg 89%
    01:00 +20°C° 0,7 mm 1 m/S 750 mmHg 90%
    02:00 +20°C° 0,7 mm 1 m/S 750 mmHg 91%
    03:00 +19°C° 0,7 mm 2 m/S 750 mmHg 92%
    04:00 +18°C° 0,8 mm 2 m/S 750 mmHg 91%
    05:00 +18°C° 0,8 mm 2 m/S 750 mmHg 91%
    06:00 +18°C° 0,8 mm 3 m/S 750 mmHg 91%
    07:00 +19°C° 0,2 mm 3 m/S 750 mmHg 86%
    08:00 +20°C° 0,2 mm 3 m/S 750 mmHg 81%
    09:00 +21°C° 0,2 mm 3 m/S 750 mmHg 76%
    10:00 +22°C° 0,2 mm 3 m/S 750 mmHg 70%
    11:00 +25°C° 0,2 mm 3 m/S 750 mmHg 63%
    12:00 +26°C° 0,2 mm 4 m/S 750 mmHg 57%
    13:00 +26°C° 0,2 mm 4 m/S 750 mmHg 55%
    14:00 +27°C° 0,2 mm 4 m/S 750 mmHg 54%
    15:00 +27°C° 0,2 mm 4 m/S 750 mmHg 52%
    16:00 +26°C° 0,1 mm 3 m/S 750 mmHg 55%
    17:00 +25°C° 0,1 mm 3 m/S 750 mmHg 58%
    18:00 +25°C° 0,1 mm 3 m/S 750 mmHg 61%
    19:00 +23°C° 0 mm 2 m/S 751 mmHg 67%
    20:00 +21°C° 0 mm 2 m/S 751 mmHg 72%
    21:00 +19°C° 0 mm 2 m/S 751 mmHg 78%
    22:00 +19°C° 0 mm 2 m/S 751 mmHg 80%
    23:00 +18°C° 0 mm 2 m/S 751 mmHg 83%
    Mehr zeigen